#timestamp,LO_Frequency,Hit,StdDev 
1621195215.1,286046994.7,N
1621195235.9,286046994.3,N
1621195255.7,286046992.7,N
1621195275.5,286046993.2,N
1621195295.4,286046990.5,Y
1621195315.2,286046994.4,P
1621195335.1,286046994.4,P
1621195336.0,286046994.4,P
1621195355.8,286046993.8,Y
1621195375.6,286046998.3,P
1621195395.5,286046999.1,N
1621195415.3,286046999.2,N
1621195435.2,286046997.1,N
1621195455.9,286046997.2,N
1621195505.8,286046999.6,E
1621195515.7,286046996.5,N
1621195535.5,286046998.7,P
1621195555.4,286046998.8,N
1621195575.2,286046998.4,N
1621195595.0,286046998.4,N
1621195595.9,286046998.4,N
1621195615.8,286046999.3,N
1621195635.6,286046998.9,N
1621195655.5,286046997.1,Y
1621195675.3,286046998.2,P
1621195695.1,286046998.4,P
1621195715.9,286046998.6,P
1621195735.7,286046998.1,Y
1621195755.5,286047000.5,P
1621195775.4,286047000.1,N
1621195795.2,286047000.6,N
1621195815.1,286047002.4,N
1621195816.0,286047002.4,N
1621195835.8,286047000.7,N
1621195855.6,286047001.2,N
1621195875.5,286047001.0,N
1621195895.3,286047001.0,N
1621195915.2,286047000.5,N
1621195935.9,286046999.8,N
1621195955.7,286047001.7,N
1621195975.6,286047001.3,N
1621195995.4,286047002.0,N
1621196015.2,286047000.8,N
1621196035.1,286047000.9,N
1621196036.0,286047000.9,N
1621196055.8,286046998.4,N
1621196075.7,286047000.9,N
1621196095.5,286046998.1,N
1621196115.3,286047001.8,N
1621196135.2,286047002.9,N
1621196155.9,286047005.7,Y
1621196175.7,286047004.9,P
1621196195.6,286047007.5,P
1621196215.4,286047004.7,N
1621196235.3,286047007.6,Y
1621196255.1,286047001.0,P
1621196256.0,286047001.0,N
1621196275.8,286046999.5,N
1621196295.7,286047000.7,N
1621196315.5,286047002.7,N
1621196335.3,286046999.7,N
1621196355.2,286047000.1,N
1621196375.0,286047000.5,N
1621196375.9,286047000.5,N
1621196395.8,286046999.0,N
1621196415.6,286046998.3,N
1621196435.4,286047002.7,N
1621196455.3,286047001.9,N
1621196475.1,286047000.6,N
1621196495.8,286047000.7,N
1621196515.7,286047002.2,N
1621196535.5,286047000.1,N
1621196555.4,286047002.6,N
1621196575.2,286047002.8,N
1621196595.0,286047002.5,N
1621196595.9,286047002.5,N
1621196615.8,286047002.7,N
1621196635.6,286047001.5,N
1621196655.5,286047001.8,N
1621196675.3,286047001.8,N
1621196695.1,286047003.7,N
1621196715.9,286047002.7,N
1621196735.7,286047001.9,N
1621196755.6,286047003.9,N
1621196775.4,286047003.1,N
1621196795.2,286047000.1,N
1621196815.1,286047002.6,N
1621196816.0,286047002.6,N
1621196835.8,286047004.3,Y
1621196855.6,286047004.1,P
1621196875.5,286047004.5,P
1621196895.3,286047003.0,N
1621196915.2,286047004.0,Y
1621196935.9,286046998.7,P
1621196955.7,286046996.8,N
1621196975.6,286046996.9,N
1621196995.4,286046999.0,N
1621197015.3,286046999.0,N
1621197035.1,286046999.0,N
1621197036.0,286046999.0,N
1621197055.8,286046999.0,N
1621197075.7,286046996.9,N
1621197095.5,286046999.0,N
1621197115.4,286046999.5,N
1621197135.2,286046996.9,N
1621197155.0,286046998.9,N
1621197155.9,286046998.9,N
1621197175.8,286046997.0,N
1621197195.6,286046997.1,N
1621197215.4,286046998.0,N
1621197235.3,286046997.6,N
1621197255.1,286046996.6,N
1621197275.9,286046996.8,N
1621197295.7,286046997.0,N
1621197315.5,286046999.3,N
1621197335.4,286046999.3,N
1621197355.2,286047000.9,N
1621197375.1,286046999.0,N
1621197376.0,286046999.0,N
1621197395.8,286046998.8,N
1621197415.6,286046999.1,N
1621197435.5,286046998.2,N
1621197455.3,286046998.5,N
1621197475.2,286046999.4,N
1621197495.9,286047000.2,N
1621197515.7,286046999.8,N
1621197535.6,286047002.8,N
1621197555.4,286047002.4,N
1621197575.3,286046998.1,N
1621197595.1,286047000.6,N
1621197596.0,286047000.6,N
1621197645.9,286047000.7,E
1621197655.8,286046998.6,N
1621197675.6,286047001.1,P
1621197695.5,286046996.9,N
1621197715.3,286046996.9,N
1621197735.1,286046998.9,N
1621197755.9,286047000.6,N
1621197775.7,286047000.9,N
1621197795.6,286047002.1,N
1621197815.4,286047001.6,N
1621197835.2,286047004.0,N
1621197855.1,286047001.7,N
1621197856.0,286047001.7,N
1621197875.8,286047001.4,N
1621197895.7,286047001.9,N
1621197915.5,286047000.4,N
1621197935.3,286047000.3,N
1621197955.2,286046998.2,N
1621197975.0,286046997.9,N
1621197975.9,286046997.9,N
1621197995.7,286046997.2,N
1621198015.6,286046998.7,N
1621198035.4,286046998.4,N
1621198055.3,286047000.9,N
1621198075.1,286047002.3,N
1621198095.8,286047002.3,N
1621198115.7,286047001.9,N
1621198135.5,286047000.1,N
1621198155.4,286047000.0,N
1621198175.2,286047000.5,N
1621198195.0,286047002.0,N
1621198195.9,286047002.0,N
1621198215.8,286047001.3,N
1621198235.6,286047004.3,N
1621198255.5,286047001.0,N
1621198275.3,286047001.1,N
1621198295.1,286047001.2,N
1621198315.9,286046999.9,N
1621198335.7,286047000.4,N
1621198355.5,286047000.6,N
1621198375.4,286047002.4,N
1621198395.3,286047002.5,N
1621198415.1,286046999.7,N
1621198435.8,286046999.9,N
1621198455.7,286047001.6,N
1621198475.5,286047001.9,N
1621198495.4,286047002.0,N
1621198515.2,286047001.6,N
1621198535.0,286047001.3,N
1621198535.9,286047001.3,N
1621198555.8,286047000.6,N
1621198575.6,286047000.4,N
1621198595.4,286047000.4,N
1621198615.3,286046998.2,N
1621198635.1,286046999.0,N
1621198655.9,286047002.3,N
1621198675.7,286047002.4,N
1621198695.5,286046999.7,N
1621198715.4,286046999.7,N
1621198735.2,286047002.4,N
1621198755.0,286047000.2,N
1621198756.0,286047000.2,N
1621198775.8,286047000.3,N
1621198795.6,286047002.3,N
